Вернуться в каталог

STARLINK-30080

АктивенСвязьVLEO
NORAD 56705·PAYLOAD·🇺🇸 United States

Запущен May 19, 2023 с Cape Canaveral Space Force Station

Loading…

Ближайшие Пролёты (ближайшие 24 часа)

TLE

СвежийSource: CelesTrak SupGP

Эпоха: Sep 14, 2026, 20:55 UTC

1 56705C 23067T   26257.87201389  .00010483  00000+0  37980-3 0  2573
2 56705  43.0001 274.6562 0001518 268.2661 142.8526 15.27564025    17

Отслеживайте STARLINK-30080 в реальном времени с AllMySat

Download on the App Store